TimeCDT,TemperatureF,Dew PointF,Humidity,Sea Level PressureIn,VisibilityMPH,Wind Direction,Wind SpeedMPH,Gust SpeedMPH,PrecipitationIn,Events,Conditions,WindDirDegrees,DateUTC
12:15 AM,51.8,51.8,100,30.21,10.0,SE,5.8,-,N/A,,Clear,130,2013-09-17 05:15:00
12:35 AM,50.0,50.0,100,30.21,10.0,SE,5.8,-,N/A,,Clear,140,2013-09-17 05:35:00
12:55 AM,51.8,51.8,100,30.20,10.0,SE,6.9,-,N/A,,Scattered Clouds,140,2013-09-17 05:55:00
1:15 AM,50.0,50.0,100,30.20,10.0,SE,6.9,-,N/A,,Scattered Clouds,130,2013-09-17 06:15:00
1:35 AM,51.8,51.8,100,30.20,10.0,SE,6.9,-,N/A,,Mostly Cloudy,130,2013-09-17 06:35:00
1:55 AM,51.8,51.8,100,30.19,10.0,SE,5.8,-,N/A,,Mostly Cloudy,130,2013-09-17 06:55:00
2:15 AM,51.8,51.8,100,30.19,10.0,SSE,8.1,-,N/A,,Overcast,150,2013-09-17 07:15:00
2:35 AM,53.6,53.6,100,30.18,10.0,SSE,6.9,13.8,N/A,,Overcast,150,2013-09-17 07:35:00
2:55 AM,55.4,55.4,100,30.18,10.0,SSE,6.9,-,N/A,,Overcast,150,2013-09-17 07:55:00
3:15 AM,55.4,55.4,100,30.17,10.0,SSE,9.2,-,N/A,,Overcast,150,2013-09-17 08:15:00
3:35 AM,55.4,55.4,100,30.17,9.0,SSE,8.1,-,N/A,Rain,Light Rain,160,2013-09-17 08:35:00
3:55 AM,55.4,55.4,100,30.16,9.0,Variable,5.8,12.7,N/A,Rain,Light Rain,0,2013-09-17 08:55:00
4:15 AM,55.4,55.4,100,30.16,10.0,SSE,6.9,-,N/A,Rain,Light Rain,160,2013-09-17 09:15:00
4:35 AM,55.4,55.4,100,30.15,10.0,SSE,8.1,-,N/A,,Overcast,160,2013-09-17 09:35:00
4:55 AM,55.4,55.4,100,30.15,10.0,SSE,8.1,15.0,N/A,,Overcast,160,2013-09-17 09:55:00
5:15 AM,55.4,55.4,100,30.14,7.0,SSE,11.5,-,N/A,,Overcast,160,2013-09-17 10:15:00
5:35 AM,55.4,55.4,100,30.14,7.0,SSE,9.2,-,N/A,,Overcast,150,2013-09-17 10:35:00
5:55 AM,55.4,55.4,100,30.13,8.0,SSE,8.1,-,N/A,,Overcast,150,2013-09-17 10:55:00
6:15 AM,55.4,55.4,100,30.13,10.0,SSE,10.4,16.1,N/A,,Overcast,150,2013-09-17 11:15:00
6:35 AM,55.4,55.4,100,30.12,10.0,SSE,9.2,-,N/A,,Overcast,150,2013-09-17 11:35:00
6:55 AM,55.4,55.4,100,30.12,10.0,SSE,13.8,-,N/A,,Overcast,150,2013-09-17 11:55:00
7:15 AM,55.4,55.4,100,30.11,9.0,SSE,9.2,19.6,N/A,,Overcast,150,2013-09-17 12:15:00
7:35 AM,55.4,55.4,100,30.11,8.0,SSE,10.4,16.1,N/A,,Overcast,150,2013-09-17 12:35:00
7:55 AM,55.4,55.4,100,30.11,9.0,SSE,10.4,17.3,N/A,,Overcast,150,2013-09-17 12:55:00
8:15 AM,57.2,57.2,100,30.10,5.0,SSE,13.8,20.7,N/A,Rain,Light Rain,150,2013-09-17 13:15:00
8:35 AM,57.2,57.2,100,30.10,8.0,SSE,8.1,18.4,N/A,,Overcast,150,2013-09-17 13:35:00
8:55 AM,57.2,57.2,100,30.09,9.0,SSE,11.5,17.3,N/A,,Overcast,150,2013-09-17 13:55:00
9:15 AM,57.2,57.2,100,30.09,10.0,SSE,16.1,23.0,N/A,,Overcast,150,2013-09-17 14:15:00
9:35 AM,57.2,57.2,100,30.09,10.0,SSE,13.8,-,N/A,,Overcast,150,2013-09-17 14:35:00
9:55 AM,57.2,57.2,100,30.09,10.0,SSE,11.5,-,N/A,,Overcast,150,2013-09-17 14:55:00
10:15 AM,57.2,57.2,100,30.08,10.0,SSE,8.1,18.4,N/A,,Overcast,150,2013-09-17 15:15:00
10:35 AM,57.2,57.2,100,30.08,10.0,SSE,13.8,-,N/A,,Overcast,150,2013-09-17 15:35:00
10:55 AM,59.0,59.0,100,30.07,10.0,SSE,10.4,17.3,N/A,,Overcast,150,2013-09-17 15:55:00
11:15 AM,59.0,59.0,100,30.07,8.0,SSE,13.8,-,N/A,,Overcast,150,2013-09-17 16:15:00
11:35 AM,57.2,57.2,100,30.06,5.0,SSE,10.4,20.7,N/A,,Overcast,150,2013-09-17 16:35:00
11:55 AM,59.0,59.0,100,30.05,4.0,SSE,11.5,17.3,N/A,,Overcast,150,2013-09-17 16:55:00
12:15 PM,59.0,59.0,100,30.04,4.0,SE,11.5,-,N/A,,Overcast,140,2013-09-17 17:15:00
12:35 PM,59.0,59.0,100,30.04,3.0,SSE,10.4,18.4,N/A,,Overcast,150,2013-09-17 17:35:00
12:55 PM,59.0,59.0,100,30.03,4.0,SSE,10.4,17.3,N/A,,Overcast,160,2013-09-17 17:55:00
1:15 PM,60.8,60.8,100,30.03,4.0,SSE,9.2,16.1,N/A,,Overcast,160,2013-09-17 18:15:00
1:35 PM,60.8,60.8,100,30.01,4.0,SSE,11.5,18.4,N/A,,Overcast,150,2013-09-17 18:35:00
1:55 PM,60.8,60.8,100,30.01,4.0,SSE,13.8,19.6,N/A,,Overcast,150,2013-09-17 18:55:00
2:15 PM,60.8,60.8,100,29.99,3.0,SSE,11.5,17.3,N/A,,Overcast,160,2013-09-17 19:15:00
2:35 PM,60.8,60.8,100,29.98,3.0,SSE,11.5,-,N/A,,Overcast,160,2013-09-17 19:35:00
2:55 PM,60.8,60.8,100,29.98,3.0,SSE,10.4,-,N/A,,Overcast,150,2013-09-17 19:55:00
3:15 PM,60.8,60.8,100,29.97,2.5,North,-9999.0,-,N/A,,Overcast,0,2013-09-17 20:15:00
3:35 PM,60.8,60.8,100,29.96,2.5,SE,10.4,16.1,N/A,,Overcast,140,2013-09-17 20:35:00
3:55 PM,60.8,60.8,100,29.95,1.8,SE,11.5,-,N/A,,Overcast,140,2013-09-17 20:55:00
4:15 PM,60.8,60.8,100,29.94,2.5,SE,10.4,16.1,N/A,,Overcast,140,2013-09-17 21:15:00
4:35 PM,60.8,60.8,100,29.94,2.0,SE,12.7,18.4,N/A,,Overcast,140,2013-09-17 21:35:00
4:55 PM,60.8,60.8,100,29.93,1.8,SE,10.4,-,N/A,,Overcast,140,2013-09-17 21:55:00
5:15 PM,62.6,62.6,100,29.93,2.0,SE,10.4,-,N/A,,Overcast,140,2013-09-17 22:15:00
5:35 PM,62.6,62.6,100,29.93,2.5,SE,8.1,15.0,N/A,,Overcast,140,2013-09-17 22:35:00
5:55 PM,62.6,62.6,100,29.92,3.0,SE,10.4,-,N/A,,Overcast,140,2013-09-17 22:55:00
6:15 PM,62.6,62.6,100,29.92,3.0,SSE,9.2,-,N/A,,Overcast,150,2013-09-17 23:15:00
6:35 PM,62.6,62.6,100,29.91,3.0,SE,10.4,-,N/A,,Overcast,140,2013-09-17 23:35:00
6:55 PM,62.6,62.6,100,29.91,1.2,North,-9999.0,-,N/A,Rain,Light Rain,0,2013-09-17 23:55:00
7:15 PM,62.6,62.6,100,29.90,1.0,SE,9.2,15.0,N/A,Rain,Light Rain,140,2013-09-18 00:15:00
7:35 PM,62.6,62.6,100,29.90,1.2,SE,12.7,-,N/A,,Overcast,140,2013-09-18 00:35:00
7:55 PM,62.6,62.6,100,29.90,2.5,SE,9.2,-,N/A,,Overcast,140,2013-09-18 00:55:00
8:15 PM,62.6,62.6,100,29.90,2.5,SE,10.4,16.1,N/A,,Overcast,140,2013-09-18 01:15:00
8:35 PM,62.6,62.6,100,29.90,2.5,SE,10.4,17.3,N/A,,Overcast,140,2013-09-18 01:35:00
8:55 PM,62.6,62.6,100,29.90,3.0,SE,11.5,17.3,N/A,,Overcast,140,2013-09-18 01:55:00
9:15 PM,62.6,62.6,100,29.89,5.0,SE,9.2,17.3,N/A,,Overcast,140,2013-09-18 02:15:00
9:35 PM,62.6,62.6,100,29.89,6.0,SE,11.5,17.3,N/A,,Overcast,140,2013-09-18 02:35:00
9:55 PM,62.6,62.6,100,29.89,6.0,SE,11.5,-,N/A,,Overcast,140,2013-09-18 02:55:00
10:15 PM,62.6,62.6,100,29.89,6.0,SE,10.4,17.3,N/A,,Overcast,140,2013-09-18 03:15:00
10:35 PM,64.4,64.4,100,29.89,5.0,SSE,11.5,-,N/A,,Overcast,150,2013-09-18 03:35:00
10:55 PM,64.4,64.4,100,29.89,4.0,SSE,10.4,16.1,N/A,,Overcast,150,2013-09-18 03:55:00
11:15 PM,64.4,64.4,100,29.89,3.0,SSE,10.4,16.1,N/A,,Overcast,150,2013-09-18 04:15:00
11:35 PM,64.4,64.4,100,29.88,3.0,SSE,12.7,19.6,N/A,,Overcast,150,2013-09-18 04:35:00
11:55 PM,64.4,64.4,100,29.87,3.0,SSE,10.4,19.6,N/A,,Overcast,150,2013-09-18 04:55:00